Location: Newark
(34.3481°N, 134.0494°E)
Time: 18:41:34
(UTC+00:00)

Vanguard 3 - Pass Details

Date: 03 February 2020
Orbit: 508 x 3263 km, 33.3° (Epoch: 25 February)

Event Time Altitude Azimuth Distance (km) Brightness Sun altitude
Rises 07:20:35 0° 259° (W) 6,115 13.1 13.0°
Reaches altitude 10° 07:24:07 10° 259° (W) 5,381 13.0 12.4°
Maximum altitude 07:42:01 86° 173° (S) 3,246 10.4 9.1°
Drops below altitude 10° 08:01:36 10° 88° (E) 5,804 10.9 5.5°
Sets 08:05:36 0° 88° (E) 6,592 11.2 4.7°
